Wind_Speed
7 8 8 9 10 12 12 13 13 13 13 12 11 10 10 13 14 10 9 10 10 10 9 9 9 8 9 9 9 9 9 9 9 9 9 9 9 9 9 9 10 9 9 9 8 7 7 7 7 6 4 5 5 4 4 4 3 4 3 3 3 3 1 2 4 5 3 1 1 1 1 1 1 1 1 1 2 2 2 1 4 7 5 6 9
9 9 9 9 9 10 11 13 14 14 14 12 12 12 11 13 14 11 9 10 10 10 10 9 9 9 9 9 9 9 9 9 8 9 9 10 9 8 8 8 9 9 8 8 7 6 6 6 6 4 3 3 3 2 4 4 3 3 2 1 3 2 1 1 3 4 3 1 1 1 0 2 2 1 1 1 2 4 3 2 3 5 3 4 7
10 10 10 9 9 11 11 12 13 14 13 12 11 12 12 12 12 11 10 10 9 9 10 10 10 10 10 10 10 10 10 9 8 9 9 10 9 8 7 8 8 8 7 7 7 6 5 5 5 3 2 3 2 1 3 3 4 2 3 1 2 2 3 3 1 2 3 2 2 3 2 1 4 3 1 2 2 4 6 5 4 5 5 5 6
9 10 10 9 8 10 12 12 13 13 12 12 11 12 12 12 12 11 11 10 9 9 10 10 10 10 10 10 10 10 10 9 9 9 9 9 9 8 8 8 8 7 7 6 7 7 6 5 5 4 3 3 3 1 3 4 3 2 3 2 2 2 2 1 1 1 2 2 1 2 0 0 3 3 3 4 4 4 4 4 5 6 6 7 9
10 10 10 9 9 10 11 11 11 11 12 12 12 13 13 12 11 11 10 11 10 9 10 11 11 11 10 10 11 10 10 10 9 9 9 8 8 8 8 8 7 7 6 6 6 6 6 5 5 5 5 4 4 3 3 4 3 2 4 4 4 5 3 2 2 1 2 3 2 3 4 4 4 3 5 7 7 7 6 5 7 8 7 8 9
10 10 8 8 8 9 10 10 10 11 12 11 11 12 13 13 12 12 11 11 11 10 11 11 11 12 12 11 12 12 11 11 11 10 10 9 8 8 8 8 8 7 6 6 6 6 6 6 6 6 6 6 5 4 3 4 4 3 3 5 3 5 5 3 3 3 4 4 3 4 5 6 6 7 7 7 8 10 9 8 9 12 12 11 11
10 10 8 8 8 9 11 11 11 12 12 10 10 11 12 13 13 12 11 11 11 11 12 12 12 12 13 13 13 13 13 13 12 12 12 11 10 9 8 8 7 7 7 6 7 7 7 7 8 8 8 7 7 6 5 5 5 4 4 5 4 2 4 5 5 4 4 4 5 5 6 5 5 7 8 7 7 10 10 9 10 14 15 14 13
8 8 8 8 8 9 10 11 11 11 10 9 9 10 11 12 12 12 12 12 12 12 12 13 13 13 13 14 14 14 14 14 14 14 13 12 11 10 9 8 7 7 7 6 6 7 7 7 8 8 9 9 9 8 8 7 7 7 6 6 6 4 4 5 6 6 7 6 6 7 8 8 7 6 8 8 8 10 11 11 12 15 15 14 15
6 6 5 5 5 6 7 8 8 9 9 9 9 9 9 10 11 12 12 12 13 13 13 13 13 14 14 14 14 15 15 15 15 15 15 14 12 10 8 8 7 6 6 4 4 5 7 7 8 9 10 11 11 11 10 9 9 9 7 6 7 8 7 6 7 8 8 8 9 9 9 10 9 7 7 8 10 10 11 12 14 16 16 16 16
4 4 3 3 2 3 4 5 6 7 8 9 9 8 9 9 9 10 12 13 13 14 13 13 14 14 14 15 15 15 15 15 17 17 17 16 14 12 10 7 5 3 2 0 2 4 7 8 9 10 12 13 13 14 14 13 12 12 11 8 7 8 8 8 9 11 10 11 11 10 9 10 10 8 8 9 10 10 10 12 14 16 17 17 16
5 4 4 3 1 2 3 4 5 7 7 8 9 9 10 9 9 11 11 12 13 13 14 14 14 15 15 16 16 16 16 17 21 22 21 20 18 17 15 10 5 2 2 1 2 4 6 8 8 9 11 11 11 12 12 13 13 15 17 15 12 10 10 9 10 10 11 13 12 10 10 11 9 8 10 12 10 7 7 11 14 16 17 17 17
7 6 5 3 2 1 0 2 3 5 6 8 9 10 11 11 11 12 12 12 12 13 14 14 14 15 16 17 18 18 17 20 25 25 24 23 21 19 17 14 10 9 7 6 6 6 6 6 5 6 9 9 8 7 8 9 10 13 16 17 16 15 15 14 11 7 7 8 9 9 10 11 9 7 7 7 6 6 9 12 13 14 16 16 17
9 8 7 6 5 4 3 2 2 2 4 6 7 9 10 12 12 13 13 13 13 14 15 16 16 16 17 18 19 19 19 22 25 25 24 23 21 18 15 13 14 13 13 14 12 8 8 9 7 6 8 8 7 6 7 9 8 9 12 15 18 20 20 19 17 13 8 5 5 6 7 7 5 3 2 3 6 8 11 12 12 13 15 16 17
9 9 8 8 8 7 6 5 4 3 3 4 5 7 9 10 11 12 13 14 15 17 17 17 18 18 18 19 20 20 20 21 23 25 25 22 20 19 16 12 12 12 13 14 12 9 9 11 11 8 6 5 6 6 6 7 7 7 8 11 14 17 18 16 15 15 13 8 6 5 4 2 3 3 2 5 8 9 10 12 12 14 16 18 20
9 8 8 8 8 8 7 6 6 5 5 4 5 6 7 9 10 11 12 13 15 17 19 21 21 21 21 22 22 22 21 21 22 24 24 20 20 22 20 15 13 13 12 12 12 11 9 9 9 7 5 5 7 7 6 5 5 4 5 7 8 9 11 11 10 8 7 5 5 3 1 2 3 2 3 5 6 7 9 11 13 15 18 19 19
8 7 7 7 8 8 8 7 6 6 6 6 6 7 8 9 10 10 11 12 13 15 18 21 22 23 24 25 24 23 21 19 21 23 23 21 21 23 21 18 17 15 13 11 11 10 8 7 7 6 5 5 5 6 8 7 5 4 7 8 7 8 11 11 11 10 9 7 7 6 6 8 9 9 8 8 9 10 11 12 13 15 17 18 18
7 7 6 7 7 8 8 8 7 7 7 7 7 8 8 9 10 10 11 12 14 15 17 18 20 22 23 24 24 23 20 17 19 24 24 22 22 23 21 19 18 17 15 13 11 11 11 9 8 6 5 5 3 5 8 8 6 6 8 8 6 7 9 11 10 10 10 9 9 9 10 10 10 10 11 12 13 14 13 13 13 14 15 17 17
7 7 7 8 8 8 8 8 9 9 8 8 8 9 9 10 10 11 11 13 14 15 16 17 19 19 19 21 21 20 20 18 18 22 25 23 24 25 22 20 19 18 17 14 12 12 14 12 10 7 6 6 5 7 9 9 6 6 8 8 7 7 6 7 8 8 7 8 8 9 9 10 10 11 13 13 13 13 12 12 12 14 14 15 15
8 9 9 9 9 9 9 9 9 9 9 10 10 10 11 11 11 12 12 13 14 15 16 18 19 19 17 18 19 18 18 19 19 21 24 25 27 27 22 21 21 19 18 16 13 12 13 13 12 9 8 7 8 9 11 8 5 6 7 7 7 7 7 6 5 3 3 4 5 6 8 10 12 13 12 12 13 13 12 11 11 13 14 14 15
9 10 10 11 11 11 11 10 10 10 11 11 11 12 12 12 12 12 13 14 15 15 17 17 18 18 16 16 18 18 19 22 23 24 25 26 28 25 21 22 23 20 18 16 14 13 13 13 12 10 9 9 9 9 10 8 5 5 5 4 3 5 8 7 5 3 2 3 4 6 7 8 9 9 9 11 13 13 11 10 9 11 14 17 17
10 11 11 12 12 12 12 12 12 12 12 13 13 13 13 13 13 13 13 14 15 16 17 18 18 18 17 16 16 16 18 22 24 25 26 29 30 25 18 17 20 20 18 17 16 15 13 13 14 12 10 10 9 9 10 9 7 6 4 2 5 8 7 3 3 3 4 5 6 7 8 8 8 8 10 12 14 13 11 11 11 13 16 19 20
11 12 12 12 13 13 13 14 14 14 14 14 14 14 14 14 14 15 14 14 16 16 17 17 17 16 15 14 16 17 17 21 23 24 27 29 30 27 18 12 12 15 16 16 16 16 15 15 16 15 12 12 11 9 9 9 8 7 5 3 4 4 2 1 2 3 5 5 6 7 8 8 10 10 10 12 13 12 10 11 12 14 15 17 19
12 12 12 13 14 14 15 15 16 16 15 15 15 16 16 16 15 16 16 15 17 17 17 16 15 12 9 8 10 12 14 17 20 22 26 26 25 24 17 10 10 15 16 16 17 18 17 17 18 16 14 12 11 9 9 8 7 6 4 4 3 3 2 2 3 4 5 6 7 8 8 9 9 9 10 10 10 10 11 11 13 14 15 17 19
12 12 13 14 14 15 16 16 16 17 16 17 17 17 17 17 17 18 18 17 18 18 17 16 14 12 10 9 8 8 11 13 15 20 25 25 25 24 13 6 11 18 16 15 18 18 18 19 18 17 14 12 10 9 7 6 5 3 2 2 1 1 1 2 3 4 4 6 7 7 8 8 8 9 9 8 9 11 13 14 14 15 16 17 18
13 13 14 14 15 16 17 17 18 18 18 18 19 19 18 18 19 19 19 19 19 19 19 18 16 15 14 13 12 11 13 13 14 20 25 23 24 23 12 6 11 15 13 16 19 17 17 19 18 16 14 11 9 8 6 4 3 2 2 2 2 2 1 2 3 3 5 6 6 6 7 8 8 9 8 9 12 15 15 14 15 16 16 17 17
15 15 15 15 16 16 17 17 18 18 19 19 20 20 20 20 20 20 20 20 20 20 19 19 19 17 15 14 14 14 15 18 21 25 27 25 25 23 15 12 14 13 12 18 19 15 16 18 17 15 12 10 8 7 6 5 4 4 4 4 3 1 1 1 2 3 4 5 5 6 7 8 8 10 10 11 15 16 14 14 16 17 17 17 17
17 18 17 17 17 17 17 17 17 18 19 19 20 21 21 21 22 22 22 22 21 21 22 21 20 18 16 15 16 16 18 22 27 30 31 31 30 26 21 19 19 15 15 18 18 16 18 18 16 14 13 12 10 8 6 6 6 5 4 4 3 1 1 1 1 2 3 4 5 6 8 9 9 10 11 11 12 14 14 15 16 17 16 17 17
20 20 20 20 20 19 19 19 19 19 19 19 20 21 21 21 22 22 22 23 23 22 21 17 15 14 13 11 13 17 20 23 29 34 36 35 33 29 25 24 21 18 18 20 19 19 19 17 15 14 13 12 11 8 6 7 6 4 3 3 3 2 2 1 0 1 1 3 5 7 8 9 9 10 10 11 13 14 14 14 15 16 16 16 17
20 21 20 20 20 20 20 20 20 20 19 19 20 22 22 23 23 22 21 22 21 19 14 6 4 4 5 6 8 13 16 21 27 33 37 38 36 32 30 29 24 21 21 22 22 22 19 16 15 13 12 12 11 9 9 8 6 5 4 2 3 3 2 1 0 1 2 4 6 7 8 9 10 10 11 13 13 14 14 14 15 15 15 15 15
21 20 19 19 19 18 19 19 19 20 20 20 21 22 23 25 26 26 25 22 17 15 12 5 2 3 5 7 7 10 13 16 24 30 33 33 33 32 31 30 26 23 24 23 23 22 19 16 15 15 13 12 11 10 9 8 6 6 5 3 3 2 1 1 1 2 4 5 5 6 7 8 10 11 12 13 14 14 15 15 15 15 14 14 15
19 18 18 18 18 18 18 19 19 20 20 20 21 22 23 24 25 27 29 29 24 19 16 12 7 6 7 8 8 7 3 8 19 30 32 31 31 30 29 27 24 24 26 24 21 19 17 15 15 15 13 11 10 9 9 7 6 6 5 4 4 3 1 0 1 3 4 5 5 6 7 8 10 11 13 14 15 15 15 15 14 14 14 14 15
18 18 18 19 19 19 19 20 20 20 21 20 21 21 21 22 23 22 25 29 30 28 24 22 18 14 11 9 7 6 5 2 12 26 31 31 30 28 28 28 25 24 25 22 17 15 15 14 14 14 12 10 10 9 8 6 5 5 4 4 3 2 1 0 1 3 3 4 5 6 7 9 11 12 13 14 15 15 15 15 14 14 14 14 15
18 18 18 19 19 19 19 19 19 20 20 20 20 20 20 21 21 20 19 22 26 28 29 29 27 23 19 17 15 11 6 2 7 18 26 27 27 27 28 27 24 23 23 19 14 13 14 13 12 12 11 10 9 8 7 6 6 5 4 3 2 2 1 1 2 3 2 4 6 7 8 9 11 12 13 13 14 14 15 14 14 14 14 14 14
17 18 19 19 19 19 19 20 20 20 19 19 19 19 19 20 20 21 20 18 17 20 25 28 27 23 20 19 18 17 16 11 9 15 22 23 22 23 24 22 21 22 22 15 10 11 12 11 11 11 10 9 9 8 7 6 6 5 4 3 2 1 1 1 2 2 3 5 6 6 7 9 10 12 13 13 14 14 14 14 14 14 14 15 15
17 17 18 20 20 20 19 19 20 20 19 19 18 18 18 19 20 21 22 20 17 15 17 22 24 22 21 21 20 20 20 17 15 17 21 23 22 21 21 21 22 23 19 13 10 11 11 11 11 10 9 9 9 8 7 6 5 5 4 3 2 1 1 1 1 2 4 5 5 6 7 8 9 11 12 13 14 14 14 15 15 14 15 15 15
17 18 19 20 20 20 19 19 18 18 19 19 18 17 17 19 20 20 21 21 19 16 10 12 18 20 19 20 22 22 21 20 20 21 21 22 23 23 23 25 25 22 16 12 12 13 12 11 11 10 9 9 9 7 7 6 5 4 3 2 2 2 1 1 1 3 4 5 5 6 7 8 9 10 12 13 14 14 14 15 15 15 15 15 16
18 19 20 19 18 19 20 19 18 18 18 19 18 17 17 18 19 20 22 19 16 13 6 6 13 15 14 16 19 20 19 20 24 25 24 23 24 25 26 27 25 21 16 14 14 13 12 11 10 9 9 9 9 8 7 6 5 4 2 1 2 2 1 1 0 3 4 4 5 6 7 8 9 10 11 13 14 14 14 15 15 15 16 16 16
17 18 18 18 19 19 19 19 19 18 17 17 17 16 16 18 18 19 21 19 13 10 8 7 11 12 12 14 16 17 19 21 23 25 27 29 30 30 27 25 24 21 18 15 14 13 12 10 10 10 10 9 8 7 6 4 4 3 2 3 4 3 2 3 2 2 4 4 5 7 7 8 9 11 12 13 13 13 14 14 14 15 16 16 16
16 17 17 19 19 17 16 15 15 14 12 12 14 15 16 18 18 18 19 17 13 10 11 10 11 11 13 16 18 19 20 20 21 25 29 32 33 30 24 22 22 21 19 16 14 13 11 10 10 10 9 8 7 5 5 4 4 3 3 4 5 3 2 2 1 2 4 5 6 7 8 9 10 11 11 12 12 12 13 15 15 16 16 17 17
16 16 17 17 16 14 11 9 8 8 8 8 11 13 14 15 16 16 16 13 9 9 9 6 8 11 12 17 21 22 20 17 16 19 21 24 27 27 23 20 21 19 17 15 15 13 11 11 10 9 8 8 6 5 5 4 4 4 4 4 3 2 0 1 2 2 4 5 6 7 8 10 11 11 11 11 12 13 15 16 16 16 16 17 18
15 15 15 15 14 12 8 5 3 4 6 7 9 11 14 15 15 15 13 8 5 8 7 2 10 11 10 14 18 19 19 17 15 16 17 18 19 20 19 18 18 17 16 15 14 12 12 11 10 9 8 7 6 5 5 4 4 4 3 2 1 0 1 2 3 3 4 6 6 7 9 10 10 10 11 12 13 14 14 15 15 16 17 17 18
14 14 14 14 13 11 8 5 3 4 5 7 9 11 14 16 15 13 9 5 4 6 2 8 12 10 10 14 15 15 14 15 16 20 22 18 13 12 15 17 17 16 15 14 13 12 12 12 10 9 8 8 7 6 6 5 4 2 1 1 1 2 2 3 3 4 5 6 6 8 9 9 9 10 12 12 13 13 14 15 16 17 17 17 18
12 13 12 12 11 10 8 6 4 4 5 7 9 11 13 13 12 10 7 4 4 4 7 12 13 11 12 15 15 13 13 16 19 22 22 18 14 15 17 17 15 15 14 13 12 13 13 12 11 10 9 8 6 5 5 4 2 2 2 2 3 3 4 4 4 5 5 6 7 8 9 9 10 10 11 11 12 13 14 16 17 17 17 18 18
11 11 11 11 10 9 8 5 4 4 4 5 7 8 9 9 8 6 4 2 3 7 11 13 13 14 14 13 13 14 17 20 21 20 19 18 17 16 15 14 13 14 13 12 13 13 12 11 12 11 10 8 5 4 5 5 4 4 4 4 4 5 5 5 4 5 5 6 7 8 9 10 10 10 10 11 13 14 15 16 16 17 18 18 17
10 10 10 10 10 10 9 6 4 3 2 4 6 6 6 5 3 1 2 5 6 8 10 13 15 15 14 13 15 18 20 21 20 19 19 18 17 16 15 14 14 13 13 13 14 13 12 12 12 12 10 8 6 5 5 6 5 5 5 5 6 6 6 5 5 5 6 6 7 7 9 10 10 10 10 12 13 14 15 16 17 17 17 17 17
10 9 10 10 9 10 10 9 6 4 3 3 3 3 3 2 3 4 4 7 9 9 11 14 16 16 16 16 18 18 18 19 20 19 18 17 16 15 14 14 13 13 13 14 13 13 12 12 11 10 9 8 7 6 6 5 5 5 5 5 6 6 6 6 6 6 6 6 7 8 9 10 9 9 10 12 14 15 16 17 16 16 16 16 17
11 9 9 10 9 9 10 10 8 7 8 9 9 7 6 5 7 7 7 9 11 11 13 15 16 17 18 20 20 19 18 17 18 18 17 17 16 15 14 13 13 13 13 13 12 12 12 11 9 9 9 9 7 6 6 5 4 4 4 3 4 6 7 7 7 6 5 6 7 9 10 10 9 9 10 13 15 16 16 16 16 15 16 17 17
12 11 10 9 9 9 10 12 11 10 10 11 12 12 11 10 9 8 8 10 12 13 15 16 16 17 19 20 21 21 20 20 19 18 18 18 17 15 14 13 13 13 13 13 12 12 12 9 7 7 7 7 6 5 5 5 4 4 2 3 5 6 7 7 7 6 5 6 8 10 12 11 9 9 11 13 15 16 16 16 15 16 17 17 17
12 11 11 11 10 9 10 11 12 12 12 11 11 12 13 12 11 10 10 11 12 14 15 15 15 16 18 19 20 21 22 22 21 19 18 17 15 14 13 13 12 13 13 13 12 11 10 9 8 7 6 5 5 5 4 3 2 2 2 4 5 5 6 7 7 6 6 7 8 10 11 10 8 9 12 13 14 15 15 15 16 16 17 17 17
11 12 12 12 11 11 10 10 11 12 12 12 12 12 13 13 13 13 13 13 14 14 15 16 17 17 18 19 20 21 22 21 20 19 16 15 14 13 13 12 12 12 12 11 10 9 8 8 8 7 6 5 6 5 3 1 0 2 4 5 5 4 5 7 8 6 6 7 8 9 10 10 10 11 12 12 13 14 15 15 16 16 16 16 16
10 11 11 12 12 12 12 11 11 11 12 13 12 12 13 13 14 14 15 15 15 16 16 17 18 18 18 20 22 23 22 21 19 17 15 14 13 13 12 12 11 11 11 10 9 8 8 7 7 6 4 4 5 5 2 1 1 3 5 5 4 4 5 7 8 7 7 7 7 8 10 11 11 12 12 11 13 14 14 15 16 16 15 15 15
Wind_Direction
185 186 185 180 170 165 162 158 154 153 157 162 161 162 165 158 155 154 148 151 157 152 149 151 149 145 140 135 130 126 123 119 118 117 115 114 113 114 117 119 117 116 117 119 118 115 112 107 104 98 90 106 118 122 116 106 97 91 90 98 89 64 51 93 106 109 100 87 135 114 77 279 285 41 43 352 338 330 334 279 308 321 303 274 295
198 196 193 189 180 174 170 164 162 160 160 161 161 164 169 165 162 160 154 161 168 159 153 156 156 153 148 143 140 136 131 129 126 124 122 120 119 121 124 125 121 120 125 127 125 122 121 121 121 115 99 122 169 172 137 161 188 154 145 122 101 81 11 97 129 132 132 150 212 182 90 303 291 334 21 332 327 305 287 280 304 316 312 297 292
199 202 204 202 195 188 182 177 176 172 166 166 169 171 172 175 179 174 165 168 172 163 159 162 162 161 157 152 150 146 142 138 134 133 133 132 131 130 127 126 126 129 135 139 138 135 135 139 138 138 137 158 225 243 136 214 253 144 128 84 88 78 19 4 342 121 129 156 231 215 172 341 311 302 248 251 303 314 307 301 304 311 321 324 309
186 190 197 197 193 192 191 191 190 185 185 189 192 190 184 183 185 179 171 171 171 166 165 168 170 168 164 161 157 154 152 149 145 143 142 142 142 139 136 136 138 143 150 154 151 147 152 161 156 158 169 179 213 223 173 228 279 94 136 169 162 133 51 350 306 79 136 169 261 283 106 344 286 299 312 286 257 252 278 293 298 300 303 315 317
179 179 184 183 185 189 192 195 197 200 207 208 205 202 199 199 196 188 182 179 175 174 174 176 176 174 173 171 167 165 162 160 157 155 152 152 150 150 151 152 153 158 162 163 162 160 167 179 177 175 183 188 200 205 190 215 246 189 182 202 183 159 165 243 260 276 258 244 260 309 318 302 288 309 319 313 307 296 292 300 305 304 294 292 307
169 166 170 173 180 189 194 199 207 213 215 214 209 205 206 210 205 196 192 187 183 183 184 184 185 184 184 182 179 177 173 171 171 167 165 164 163 165 165 165 169 173 176 178 181 184 188 195 196 193 197 202 206 208 197 210 242 233 222 255 240 156 162 230 248 248 270 276 269 276 290 293 304 316 311 312 317 308 308 318 317 319 320 314 314
155 151 158 168 178 190 194 197 207 212 212 212 211 206 206 209 205 201 200 196 193 194 193 193 194 193 192 191 190 187 182 181 180 176 176 175 174 175 173 175 180 182 185 192 198 202 205 211 215 214 215 218 218 221 219 219 240 252 246 271 287 175 179 236 248 242 256 272 275 276 284 281 274 288 301 310 302 294 308 332 327 320 324 323 316
146 146 159 170 178 190 190 188 197 207 208 210 212 207 206 208 210 211 211 206 203 204 203 201 200 201 200 196 194 191 187 185 182 180 180 177 175 178 177 179 187 192 197 206 214 217 223 229 230 230 231 232 229 227 228 223 228 242 245 248 260 254 238 248 257 259 260 265 272 273 279 278 258 259 287 297 298 311 330 336 321 313 317 320 315
137 139 151 162 174 189 189 186 197 205 208 213 214 211 211 214 217 220 220 217 215 216 215 210 206 207 205 201 197 193 189 188 186 185 186 181 175 171 167 173 185 192 198 213 224 233 250 254 250 253 248 240 234 229 230 231 228 235 247 246 243 245 244 245 255 263 262 261 265 268 274 277 271 279 304 305 305 318 324 315 310 312 316 318 316
111 116 129 142 170 192 192 194 202 207 211 216 217 218 223 226 226 227 227 226 223 223 223 218 214 213 210 206 200 194 190 191 190 187 185 180 170 159 149 143 141 147 152 232 220 227 258 263 260 266 261 250 247 243 240 242 239 237 244 249 243 237 237 243 256 263 264 266 272 274 273 277 281 293 308 305 299 300 303 305 309 310 311 312 313
88 82 85 97 139 193 193 196 204 208 212 218 223 228 231 232 234 235 234 232 228 226 225 221 218 216 214 210 202 195 195 197 195 191 187 184 178 172 164 149 131 123 97 33 272 243 261 266 256 257 257 252 253 251 245 244 240 237 239 242 239 229 225 238 253 259 263 270 279 281 274 275 281 288 291 291 294 302 312 312 308 305 308 310 309
68 64 58 50 35 8 304 205 212 213 213 218 224 231 235 237 238 238 234 231 230 227 224 221 218 217 217 216 209 203 205 210 208 202 197 197 196 194 190 190 207 223 221 235 251 246 253 262 245 235 239 236 237 249 258 254 243 237 237 236 233 226 222 229 242 259 281 284 284 285 288 288 283 285 297 305 315 323 315 305 302 304 308 308 304
62 57 48 36 27 10 348 320 283 242 226 226 225 229 237 238 239 239 235 234 234 229 223 222 222 220 220 220 217 213 213 218 220 213 207 207 208 208 206 206 211 220 231 237 234 226 238 252 252 238 232 233 236 241 249 252 245 240 237 234 233 230 228 230 236 245 264 291 304 305 314 317 310 322 346 307 302 306 300 296 299 302 303 303 301
60 51 42 37 29 15 1 346 326 299 270 250 235 236 244 245 243 240 238 238 237 233 230 229 228 226 224 224 223 220 217 220 223 219 213 213 218 219 217 214 213 220 228 227 220 218 231 239 241 234 215 213 220 212 215 231 239 245 238 230 232 234 233 235 239 244 252 262 282 310 340 354 357 19 351 296 298 301 295 295 298 298 297 296 296
54 44 35 29 22 15 8 358 344 325 304 284 264 256 256 258 255 248 244 242 239 237 236 234 233 233 232 229 227 226 225 224 224 220 217 221 228 228 223 221 222 222 218 211 210 214 217 217 221 217 198 206 217 208 197 201 216 229 211 198 207 215 214 215 215 214 215 219 227 238 229 236 269 300 293 290 297 296 293 294 294 292 291 290 290
41 34 24 15 10 5 359 351 344 333 318 302 284 271 264 264 262 255 251 248 244 243 241 238 236 237 237 234 230 230 231 227 221 221 224 230 233 228 221 218 217 214 209 201 193 190 190 193 195 187 188 218 225 205 190 181 181 184 169 159 162 181 195 202 203 201 200 205 217 229 244 260 273 279 277 278 282 287 293 294 291 290 291 292 293
23 16 7 1 355 351 346 340 335 329 321 310 298 288 279 272 264 256 250 248 248 247 244 242 242 241 239 237 235 236 239 236 226 224 228 229 224 216 209 207 210 207 200 189 175 171 174 172 162 159 183 203 199 179 177 172 167 168 163 159 159 173 199 213 213 213 223 236 247 258 266 272 279 283 287 290 289 292 295 294 294 296 295 293 293
354 348 343 340 337 334 331 326 325 324 319 315 314 310 298 285 275 263 251 247 250 249 247 248 248 245 242 239 241 244 244 242 237 234 232 225 212 203 196 193 196 195 187 177 165 171 179 168 151 155 180 179 163 157 155 154 165 175 167 169 173 167 180 207 218 228 245 259 270 277 280 284 289 294 298 299 298 301 301 296 297 299 295 291 294
331 329 327 323 320 318 315 312 313 313 313 316 318 313 304 294 284 273 259 252 252 250 250 251 249 248 245 242 246 249 239 233 233 231 228 218 202 195 192 189 188 185 179 170 152 156 173 171 163 169 174 161 153 153 151 152 176 190 184 194 204 188 167 166 182 218 254 276 290 299 305 306 308 310 310 307 310 316 313 303 299 296 294 297 300
325 323 321 316 312 308 304 302 303 304 304 306 307 306 304 298 289 281 270 261 255 252 252 253 251 250 246 241 246 246 234 230 227 219 215 207 194 190 194 191 187 183 177 167 150 145 159 170 173 175 170 163 159 159 162 163 159 169 188 214 194 147 142 156 179 204 260 275 277 287 291 289 291 293 288 286 293 300 299 295 293 289 292 298 298
320 318 315 311 306 303 301 300 299 298 296 295 293 292 292 292 291 286 278 269 264 259 256 255 254 254 250 243 240 234 224 227 226 216 209 202 190 189 199 196 187 184 175 164 154 147 148 161 172 173 168 168 168 167 175 180 173 171 184 173 134 129 127 150 220 260 280 271 267 273 275 272 272 270 271 278 284 283 278 276 280 284 289 293 295
314 311 307 303 301 298 296 294 292 290 288 286 284 282 280 282 282 279 276 272 269 266 262 257 255 255 253 245 240 234 227 228 227 215 206 200 192 189 193 189 185 184 176 166 157 149 149 162 171 171 169 171 172 174 181 189 194 198 202 193 186 191 200 270 278 280 280 276 278 283 286 286 284 283 288 293 296 297 295 291 292 294 292 290 289
311 309 306 303 300 297 293 290 287 282 279 277 276 276 276 275 274 272 271 267 263 261 260 254 247 244 242 233 232 228 220 223 225 213 203 201 196 189 185 181 190 194 187 172 155 147 156 171 172 170 172 174 176 178 182 190 198 202 204 215 238 269 294 286 271 277 283 288 292 290 289 292 293 295 300 302 306 315 316 306 298 294 288 284 282
314 312 308 304 301 298 295 293 288 282 279 275 273 271 270 269 268 267 266 264 260 257 254 248 237 227 225 223 218 200 189 203 218 208 197 193 187 185 191 209 204 199 191 168 150 150 166 175 172 171 175 173 173 175 175 181 190 190 204 239 275 348 329 266 267 278 286 286 287 290 293 298 302 302 302 308 313 306 297 291 292 293 294 296 295
316 313 309 306 304 301 298 295 290 286 282 277 273 270 268 265 263 261 260 260 258 255 251 246 238 231 228 224 217 197 183 189 194 186 182 179 177 183 199 230 208 197 179 158 153 159 173 174 168 169 173 168 166 169 167 166 172 173 164 116 89 101 200 274 281 286 292 291 295 302 303 304 306 305 302 300 295 289 286 294 302 304 306 308 304
313 310 308 306 303 300 297 295 293 289 284 279 273 268 265 261 259 258 257 257 256 255 251 244 240 237 230 220 215 203 187 181 178 175 177 177 178 185 198 205 202 195 167 157 160 165 169 167 165 166 162 152 151 157 155 151 139 116 107 105 105 149 229 301 309 298 297 302 308 310 307 308 308 308 304 296 292 296 308 314 309 302 302 304 301
308 305 304 303 301 299 298 296 295 292 288 283 277 271 266 261 257 254 252 252 253 254 252 250 247 240 226 212 209 202 185 175 173 175 178 180 183 190 197 195 190 181 162 158 163 165 163 162 164 162 153 148 155 157 143 134 127 115 115 124 129 148 145 72 342 309 299 307 316 314 314 314 311 308 309 307 307 314 320 316 305 300 301 300 297
304 301 299 297 296 294 293 294 293 290 287 283 278 274 269 264 259 254 251 250 250 252 255 261 265 254 232 215 214 204 187 177 177 180 183 185 187 191 191 187 180 172 165 164 164 164 162 159 158 157 153 155 164 166 154 146 147 149 156 165 173 180 180 180 223 302 303 323 326 320 316 315 311 310 314 314 313 314 314 310 305 303 302 300 296
301 297 295 293 291 291 290 291 290 287 286 286 281 275 269 266 264 262 260 257 251 249 255 274 304 263 213 192 216 216 197 185 185 187 188 189 188 187 185 183 179 176 177 177 171 164 158 157 160 163 164 167 171 172 166 160 160 159 156 175 197 187 176 215 310 6 356 340 328 319 316 315 313 313 314 312 311 311 312 310 307 304 302 300 297
299 296 293 290 289 289 288 289 289 288 288 287 286 282 276 269 265 264 268 271 264 253 253 249 185 160 146 147 182 211 215 204 193 191 192 190 186 186 185 180 176 179 183 181 173 163 159 165 175 175 171 172 176 174 166 162 166 165 160 169 187 161 94 345 341 5 355 334 318 313 315 317 316 316 315 313 312 310 309 307 304 302 301 299 297
296 293 290 288 288 287 286 286 285 285 286 286 287 289 285 277 269 261 260 265 267 262 260 258 235 182 148 135 137 143 180 213 196 191 191 188 184 184 180 173 173 182 183 175 166 164 168 176 180 177 173 173 173 168 161 161 170 171 165 168 171 158 132 36 14 358 338 324 317 316 316 315 315 314 312 310 308 306 305 306 304 302 301 300 299
292 291 289 288 287 285 284 284 282 280 282 283 285 287 285 282 278 265 250 248 252 255 257 260 256 240 216 202 183 134 76 76 185 184 182 180 180 178 174 173 179 184 179 170 164 169 179 182 178 174 173 170 164 159 157 160 166 171 175 176 167 155 147 82 355 329 317 320 320 315 314 316 315 312 311 310 308 307 307 307 306 305 304 302 300
289 288 285 284 284 282 280 280 279 278 278 278 280 284 284 281 280 275 257 240 240 246 250 251 252 250 238 224 212 197 180 155 179 178 173 170 172 174 173 176 181 178 171 168 171 177 180 179 172 168 169 165 158 155 155 159 162 166 172 175 168 159 155 331 317 301 301 315 312 309 315 319 316 313 312 310 309 309 310 311 311 309 307 305 303
286 283 280 278 279 278 276 276 275 274 274 274 275 280 283 282 280 278 271 254 239 239 242 242 242 240 226 212 205 200 197 189 172 174 174 170 169 171 170 168 170 170 170 173 179 176 175 175 172 168 166 161 154 151 154 156 156 160 165 170 178 168 155 297 299 310 324 315 307 311 322 323 319 315 313 313 313 314 314 313 313 311 309 307 306
287 285 283 281 278 274 272 271 270 270 269 269 271 274 278 282 282 278 272 265 254 242 233 229 229 224 212 206 206 204 200 191 174 171 175 173 170 170 166 161 165 172 175 176 176 176 179 182 177 168 161 153 147 147 152 151 152 164 173 171 172 183 220 274 302 346 338 316 307 317 324 323 320 318 316 316 318 318 315 314 313 311 309 308 307
293 290 290 288 283 277 272 267 264 264 263 263 267 274 279 283 285 282 276 268 259 254 240 208 204 206 204 204 204 202 202 201 191 182 181 180 178 174 167 164 169 176 178 180 183 184 185 183 174 163 154 149 145 143 146 151 160 170 165 156 178 196 218 243 25 9 342 313 309 323 325 322 323 324 322 321 320 319 317 315 312 311 310 310 307
300 299 300 302 300 294 285 274 264 260 259 261 265 271 275 278 280 281 279 270 259 263 268 167 164 173 182 191 197 198 200 200 194 189 189 190 185 178 173 172 175 180 187 194 193 186 178 172 166 157 147 144 145 144 145 159 181 175 152 180 213 203 212 234 336 13 354 325 318 327 328 326 328 330 328 325 322 320 318 316 314 314 314 312 308
307 309 313 317 316 306 293 281 269 259 255 258 261 264 270 275 275 277 278 271 263 268 266 201 163 152 152 163 175 181 179 179 178 176 177 180 180 178 178 178 179 183 193 197 188 176 168 162 156 150 145 147 155 157 156 175 199 183 169 214 220 217 245 254 247 351 350 330 325 332 334 332 334 335 331 326 324 322 321 320 319 316 314 312 310
319 321 324 325 321 312 299 286 272 256 248 254 258 259 265 270 271 274 276 269 258 259 251 214 175 146 139 148 159 164 163 164 168 168 169 173 176 175 174 177 181 186 191 188 178 172 167 156 148 150 153 156 161 163 166 182 196 193 205 226 224 219 247 281 315 7 352 339 334 336 337 335 335 336 333 330 328 326 321 318 315 311 311 312 311
328 329 331 333 332 327 319 303 274 246 240 253 260 263 269 270 267 268 272 267 253 253 250 204 136 121 136 156 166 169 166 165 170 172 171 172 171 169 170 177 183 185 182 175 170 168 160 147 145 153 158 158 160 162 167 182 194 200 213 228 227 210 218 10 22 15 359 345 336 335 338 338 338 339 337 333 329 324 318 316 315 315 314 313 312
332 333 336 339 342 345 345 334 292 253 253 263 267 272 278 278 271 264 264 263 249 250 252 133 99 109 146 168 172 170 167 164 165 164 164 165 169 173 175 174 170 166 162 160 159 155 145 140 144 151 150 149 153 156 162 186 206 207 207 217 221 134 42 36 37 22 358 343 338 339 340 338 338 339 337 331 327 324 322 322 321 321 318 317 316
337 338 341 342 346 349 349 339 310 274 269 272 275 281 286 284 274 263 260 259 236 231 200 86 88 104 141 157 157 152 151 153 152 151 153 155 154 151 147 143 142 144 145 144 142 138 135 135 139 145 147 150 157 164 172 187 200 193 169 155 86 51 38 35 32 17 356 343 340 339 336 336 337 337 334 332 330 329 327 325 323 322 322 322 321
344 346 346 347 351 354 354 347 327 297 281 275 276 284 291 290 277 258 250 247 223 173 103 90 95 109 127 141 144 138 134 138 139 139 140 137 127 121 123 126 130 133 132 132 132 132 134 137 137 139 147 151 151 155 162 162 147 98 81 75 64 53 41 30 19 7 353 344 338 335 336 338 336 334 336 337 335 331 327 326 327 329 329 326 324
350 354 354 354 357 4 11 5 342 322 299 282 284 290 291 285 275 256 234 189 133 112 100 102 112 117 117 125 130 126 126 130 132 131 130 129 130 132 130 127 129 129 127 127 128 129 136 141 135 134 145 150 137 118 117 110 91 76 70 61 57 54 45 28 12 357 347 344 339 335 339 342 339 337 340 342 337 332 330 331 331 331 330 329 327
3 2 5 5 2 6 12 6 350 342 306 279 288 292 279 262 251 218 135 109 101 101 107 115 123 122 117 118 124 123 121 121 122 125 128 130 132 134 130 126 128 128 125 125 127 130 137 137 129 130 143 150 138 121 110 97 82 74 68 62 58 54 38 16 5 354 347 350 352 344 339 341 342 341 342 341 338 336 334 333 331 332 334 334 330
24 16 15 19 16 14 15 11 7 15 6 330 313 300 275 219 126 102 97 100 101 104 113 122 125 121 116 119 122 121 118 116 118 122 126 127 124 120 119 121 122 120 119 123 126 128 131 132 133 138 144 140 130 121 112 102 91 79 71 63 54 43 24 9 7 0 351 359 6 357 347 343 341 340 341 340 338 336 335 333 334 338 340 337 330
38 32 27 27 26 24 23 22 29 43 42 36 38 36 33 62 87 87 82 92 102 109 118 125 123 114 111 117 122 120 117 117 118 119 120 120 115 113 116 118 114 111 114 120 123 126 129 133 139 141 135 126 121 115 104 95 89 84 76 49 20 16 11 7 6 3 359 6 9 2 358 353 344 337 338 338 336 337 337 338 340 343 342 335 328
39 36 34 33 28 25 24 24 33 47 48 42 40 39 39 54 78 90 93 98 101 106 116 124 122 111 108 114 120 121 120 119 116 112 112 112 110 108 110 112 111 111 111 108 111 123 133 138 142 143 134 123 116 112 105 98 91 86 69 357 350 1 3 1 2 3 1 5 5 3 2 357 343 330 332 334 335 339 341 341 341 341 336 331 329
41 40 40 39 35 29 25 26 34 45 51 52 50 48 45 49 61 74 86 95 98 102 111 120 120 112 109 112 115 117 119 121 119 114 110 107 105 104 104 104 107 111 110 106 109 120 130 134 137 143 146 136 121 114 123 130 109 63 0 345 354 358 352 356 2 0 357 3 5 4 4 1 347 334 332 333 337 342 343 342 342 339 334 331 335
46 47 43 42 42 39 37 38 41 45 53 61 66 67 63 60 59 63 72 84 96 104 110 116 116 113 112 115 116 114 113 114 113 110 104 100 100 103 103 101 103 106 110 113 117 123 131 137 138 140 151 152 130 112 120 177 134 12 348 345 354 352 348 358 2 356 355 3 2 0 7 11 359 342 335 336 341 343 341 342 344 340 335 336 342
50 52 48 47 47 44 44 49 50 50 55 62 68 74 75 71 68 70 75 84 95 103 107 110 111 109 110 113 114 112 109 107 107 106 104 102 102 103 104 104 105 108 113 120 124 126 132 142 144 144 154 156 135 120 130 214 312 354 342 340 347 348 350 357 359 354 355 357 353 357 9 10 356 340 335 339 343 341 338 341 346 344 340 342 347
Height
801 803 804 806 808 809 811 812 814 816 817 819 821 822 823 823 824 825 825 826 827 826 827 828 829 829 830 830 831 831 832 832 833 833 834 835 835 837 837 838 839 840 841 842 843 844 844 845 847 847 848 848 849 849 849 850 850 850 851 851 851 852 852 852 853 856 858 858 858 858 859 859 858 858 859 859 859 858 858 859 858 857 856 855 855
801 802 804 806 808 809 811 812 814 815 817 819 820 822 823 823 824 825 825 827 827 827 827 828 829 830 830 831 831 832 832 833 833 834 834 835 836 837 838 839 839 841 842 843 843 845 845 846 848 848 849 849 849 849 849 850 849 849 850 851 852 853 852 852 853 855 858 859 859 859 859 859 858 859 859 859 859 859 858 859 858 858 858 857 855
800 802 804 805 807 809 811 812 814 815 816 818 820 822 823 824 825 826 826 827 827 827 827 828 829 830 830 831 831 832 833 833 834 834 835 836 837 838 839 839 840 841 842 843 844 845 846 847 848 849 850 850 850 849 850 850 849 848 850 851 853 853 853 853 853 854 857 858 859 858 859 860 859 859 859 859 860 860 859 859 859 858 858 858 857
800 802 803 805 807 808 810 812 813 815 816 817 819 821 823 824 825 825 825 826 827 827 828 828 829 830 830 831 831 832 832 833 834 835 835 836 837 838 839 840 841 842 842 843 844 845 847 848 849 850 850 851 851 851 851 851 849 849 851 852 853 854 855 855 854 854 856 857 858 858 858 859 859 859 859 859 858 858 858 858 858 859 858 858 858
801 802 803 805 807 808 810 812 813 814 816 817 818 820 822 823 824 825 825 826 826 827 828 829 829 830 830 831 831 832 832 833 834 834 835 836 837 838 839 840 841 842 842 843 844 845 847 848 849 850 850 851 851 851 851 851 850 850 851 851 852 853 855 855 854 854 854 855 856 857 858 858 858 858 859 859 858 857 857 857 857 857 857 856 856
801 802 804 805 807 809 810 811 813 814 816 817 818 819 821 822 823 824 824 825 826 827 828 829 829 829 830 830 831 831 832 833 833 834 835 836 837 838 839 840 840 841 842 843 844 845 846 848 848 849 850 850 851 851 851 852 851 851 852 851 851 852 854 854 854 854 855 854 855 857 857 857 857 857 857 858 859 858 856 856 856 856 856 855 855
801 803 805 806 808 809 810 811 812 814 816 817 818 819 820 821 822 823 823 824 825 826 827 828 828 828 829 829 830 831 831 832 833 834 835 836 837 838 838 840 840 841 842 843 844 845 846 847 848 849 849 850 850 851 851 852 852 852 852 852 852 852 853 854 854 854 855 855 855 856 856 857 857 857 857 856 857 857 855 855 857 857 857 856 855
802 803 805 806 807 809 809 810 813 814 815 816 817 818 819 820 821 822 823 823 824 825 826 827 827 827 828 828 829 830 830 831 832 833 834 835 836 837 838 839 840 841 842 843 844 845 846 847 847 848 849 849 850 850 851 851 852 853 853 853 853 853 854 854 854 853 854 854 855 856 856 856 856 856 856 856 856 856 856 857 858 858 857 856 854
803 804 805 806 807 808 808 810 812 813 814 815 817 817 818 819 820 821 822 822 824 824 825 825 826 826 827 827 828 829 830 831 831 832 833 834 836 837 838 839 840 841 842 843 844 844 845 846 847 848 849 849 849 849 850 850 851 852 853 853 853 854 854 854 854 853 853 853 853 853 854 854 854 854 855 856 856 857 858 859 858 857 857 855 854
804 804 805 806 807 808 809 810 811 812 813 815 816 817 818 819 819 820 821 821 822 823 824 824 824 825 826 826 827 828 829 830 830 831 832 834 835 836 837 838 840 841 841 842 843 843 845 846 846 847 848 848 848 849 849 849 850 851 851 852 852 853 853 854 853 852 852 851 850 851 852 852 852 854 855 856 857 857 858 858 858 857 856 853 852
805 805 806 807 808 808 809 810 810 811 813 814 815 816 817 818 819 820 820 820 821 822 822 822 823 823 824 825 826 827 828 828 829 830 831 832 833 834 835 836 838 839 841 841 843 843 844 845 846 847 848 848 847 847 847 847 848 848 849 850 851 851 852 852 852 852 852 850 850 850 851 851 852 854 855 856 856 856 857 858 857 856 854 852 850
807 807 808 808 809 809 809 810 810 811 812 813 814 815 816 817 818 818 819 819 820 820 821 821 822 822 823 823 824 825 826 826 826 828 829 830 832 833 833 834 836 838 839 840 842 843 843 844 845 846 847 846 846 845 845 845 845 846 847 848 849 850 850 851 851 851 852 851 851 851 850 850 851 853 854 855 855 856 857 857 857 856 854 853 851
809 809 809 810 810 810 810 810 810 811 811 812 813 814 815 815 816 817 817 818 819 819 819 820 820 820 821 821 822 823 823 823 825 826 828 829 830 831 832 833 834 837 838 839 840 840 841 843 844 844 844 844 844 844 843 843 843 844 845 846 846 847 848 849 850 850 851 851 852 852 851 851 852 853 854 855 856 856 857 856 856 855 854 853 851
811 811 811 812 811 811 811 811 811 811 811 812 813 813 814 814 814 815 816 816 817 817 817 818 818 819 819 819 819 820 820 821 823 825 826 827 828 830 831 832 833 835 836 837 837 838 839 841 842 842 842 842 842 842 842 842 842 843 843 844 845 845 846 848 849 850 851 851 852 853 853 853 853 854 854 855 856 856 856 855 855 854 853 851 850
812 813 813 814 813 813 812 812 812 812 812 812 812 812 813 813 813 814 814 814 815 815 815 815 815 816 817 817 817 818 818 818 820 822 824 825 826 827 828 831 833 834 835 835 835 837 838 839 840 840 840 840 840 841 842 842 842 842 843 843 844 845 845 846 847 849 850 850 852 852 852 853 853 854 854 855 855 856 855 855 854 853 851 849 847
814 815 815 816 815 815 814 814 813 813 812 812 812 811 812 812 812 812 812 813 813 813 813 813 813 813 814 815 815 815 815 816 817 819 821 822 823 824 826 829 831 832 833 833 834 835 836 837 838 838 838 838 839 839 840 841 842 842 843 844 844 844 845 846 847 848 849 849 850 851 851 852 852 853 853 854 854 854 854 853 852 851 849 847 844
815 817 817 817 817 816 815 815 814 814 813 812 811 811 810 810 810 811 811 811 811 811 810 810 811 812 812 812 812 812 812 814 815 817 818 819 821 822 824 826 828 830 831 832 832 833 834 835 836 837 837 837 838 839 840 841 842 842 843 844 844 844 845 845 846 847 848 848 849 850 850 851 851 852 852 853 852 853 852 852 851 849 848 845 843
818 818 818 818 817 816 816 816 815 814 813 812 811 810 810 809 809 809 809 809 808 808 808 808 808 809 809 809 809 809 811 813 815 816 816 817 818 820 821 823 825 827 829 829 829 830 832 833 835 836 836 837 838 838 839 840 841 843 843 844 844 845 845 845 846 846 847 848 848 849 849 849 850 850 850 850 851 851 851 851 850 849 847 845 842
819 818 818 818 817 816 816 816 815 815 814 812 811 811 809 808 808 807 807 806 806 806 806 805 806 806 806 806 806 807 809 811 812 814 815 815 816 818 818 819 821 823 825 826 827 828 830 832 833 835 836 837 838 838 839 840 841 842 843 844 843 843 844 845 845 846 847 847 847 847 847 847 847 847 847 848 849 849 849 849 850 849 847 845 843
819 818 818 817 817 816 815 815 815 814 813 812 811 810 809 808 807 806 805 805 804 804 804 803 803 803 804 804 804 804 807 808 808 810 812 813 814 816 816 816 818 820 822 823 824 826 829 831 833 835 836 836 837 838 839 840 841 842 843 843 842 842 843 844 845 845 846 847 847 847 847 846 846 846 846 846 846 846 846 846 847 848 846 844 843
819 818 818 817 816 816 815 814 814 813 812 811 810 809 809 808 806 805 804 803 802 802 802 801 801 801 802 802 802 803 804 804 805 807 809 811 812 814 815 815 816 818 819 820 822 824 827 830 832 834 835 836 837 838 839 840 840 841 841 842 842 842 843 844 844 844 845 846 845 845 846 845 845 845 845 844 844 844 844 844 845 845 844 843 842
819 818 817 816 816 815 814 814 812 811 811 810 809 808 807 806 805 804 803 802 801 801 800 800 799 799 800 800 800 801 802 802 803 804 807 809 810 811 812 814 816 819 819 819 820 823 826 828 830 832 834 835 836 837 838 839 840 840 841 842 842 842 843 843 843 844 844 844 844 844 844 844 844 844 844 843 844 844 844 843 843 843 842 842 841
818 817 816 815 814 813 812 811 810 810 808 808 807 806 805 804 803 802 801 800 799 799 798 798 798 798 799 799 799 799 799 800 801 803 805 808 810 811 812 813 817 821 821 819 819 822 825 827 830 832 833 834 835 836 837 838 839 840 841 841 842 842 842 843 843 843 843 843 844 843 843 843 843 843 843 843 843 843 843 842 842 841 841 840 839
816 816 815 814 813 812 810 809 808 807 806 805 804 803 802 802 801 800 799 798 797 796 795 796 796 796 797 797 798 798 797 798 800 802 804 807 809 812 814 815 817 820 820 818 818 821 823 826 829 831 832 833 834 835 836 838 839 839 840 840 841 841 842 842 842 842 842 843 843 842 842 842 842 843 843 842 842 842 841 840 840 839 839 838 837
815 814 813 812 811 810 809 808 807 805 804 803 802 800 800 799 798 797 796 795 794 792 792 792 793 793 794 795 796 796 796 796 797 800 803 806 810 813 816 818 819 819 818 817 818 820 823 826 828 830 831 832 833 834 836 837 838 839 839 840 840 841 841 842 842 842 842 842 842 842 842 842 842 842 842 842 841 840 838 837 838 838 837 836 835
814 813 812 811 810 809 807 806 805 804 803 801 799 798 797 796 794 794 793 792 790 789 788 788 788 789 790 791 793 794 794 795 795 797 801 806 811 814 816 818 820 820 818 817 819 821 824 826 827 829 831 832 833 834 835 836 837 838 839 840 840 841 841 841 841 841 841 841 841 842 842 842 842 842 841 840 839 838 837 836 837 837 837 836 835
813 812 811 810 809 808 806 805 804 802 801 799 798 796 794 793 791 790 789 789 787 786 785 785 785 786 787 788 790 791 792 793 794 796 799 803 808 812 815 817 818 818 818 818 820 822 824 825 827 829 830 831 833 834 835 836 837 838 839 840 840 841 841 841 841 841 841 841 841 841 842 842 841 841 840 839 838 838 837 837 837 836 836 835 834
812 811 810 809 808 806 805 804 803 801 800 798 796 794 792 790 788 787 786 786 785 784 784 783 784 786 786 786 787 789 790 791 792 794 797 799 803 808 811 813 815 816 817 819 821 823 824 825 827 829 830 831 833 834 835 836 837 838 839 839 840 840 840 840 840 840 840 841 841 841 841 841 840 840 839 839 838 838 837 837 836 835 835 834 833
811 810 809 808 806 805 804 802 801 799 798 796 795 792 790 789 787 785 784 784 782 782 783 783 785 786 786 784 786 789 790 789 790 792 794 796 800 803 806 809 811 814 816 818 820 822 824 826 828 829 830 831 832 833 834 835 836 837 838 839 839 839 839 839 839 839 840 840 841 841 841 840 840 839 839 838 838 837 837 837 836 835 834 833 832
810 809 808 807 806 804 803 801 800 798 797 795 793 790 788 787 785 784 783 782 781 780 782 783 784 785 784 783 785 788 789 789 789 791 793 796 799 801 803 806 809 812 815 817 819 821 823 826 827 828 828 829 830 831 833 834 835 836 837 838 838 838 838 839 839 839 840 840 840 840 840 840 840 839 839 838 838 838 837 836 835 834 833 832 830
809 808 807 805 804 803 802 801 799 798 796 794 793 790 787 784 782 781 781 780 780 780 781 782 782 783 783 784 785 787 789 790 789 789 791 795 798 800 803 806 808 811 814 817 819 821 823 825 826 826 826 827 828 830 831 832 834 835 836 837 837 837 838 838 839 839 839 839 839 839 839 839 839 839 839 838 838 837 836 835 834 833 832 831 829
808 807 805 804 803 802 801 799 798 796 795 793 792 790 787 783 780 778 778 778 778 779 780 781 781 782 782 784 787 789 790 791 792 790 790 793 796 799 802 805 808 810 813 816 819 821 823 824 824 824 825 826 827 829 830 831 833 834 835 835 835 836 837 838 838 839 839 839 839 839 839 838 838 838 838 838 837 836 835 833 833 832 830 829 828
807 805 804 802 801 800 799 797 796 795 794 792 791 789 787 784 780 777 776 776 776 777 778 779 780 781 781 783 786 788 790 792 794 793 792 793 796 798 801 805 808 811 813 816 818 820 821 822 823 823 824 825 826 828 829 830 832 833 834 834 834 835 836 837 838 838 838 838 838 838 837 837 838 837 837 837 836 834 833 832 831 830 829 828 827
805 803 802 801 800 798 797 796 794 793 792 791 790 788 786 784 781 778 775 774 774 774 775 775 776 778 780 781 783 785 787 789 792 794 794 794 797 800 802 805 809 812 814 816 817 818 820 821 822 822 823 824 826 827 828 830 831 832 833 834 834 834 836 837 837 837 837 837 837 837 837 837 837 836 836 835 834 833 832 831 830 829 828 827 826
802 801 800 799 797 796 795 794 793 791 791 790 789 787 786 784 782 779 775 772 771 771 771 771 772 774 778 780 781 783 785 786 789 792 794 796 798 800 803 806 810 813 814 815 816 818 819 821 821 821 822 824 825 827 828 829 831 832 833 833 834 835 836 837 837 837 837 837 836 836 836 836 835 835 834 834 833 832 831 830 829 828 828 827 826
800 799 797 796 795 793 792 791 790 789 789 788 787 786 785 783 781 779 775 772 770 769 769 769 769 771 775 777 779 782 784 786 787 790 793 796 798 800 803 807 810 813 814 815 816 817 818 819 820 821 822 823 825 826 828 829 831 832 832 833 834 835 837 837 837 836 836 836 836 835 835 835 834 834 833 832 831 831 830 829 828 827 827 826 825
798 796 794 793 792 791 790 788 787 786 786 786 786 785 784 782 781 778 775 772 769 769 770 771 770 770 773 776 778 780 783 785 787 788 791 795 798 800 803 806 809 812 813 814 814 816 817 818 819 820 821 823 824 826 828 829 830 831 832 833 834 836 836 836 836 835 835 835 835 835 834 834 833 832 831 831 830 830 829 829 828 826 826 825 824
796 794 793 791 790 788 786 785 784 784 784 784 785 784 783 782 779 777 774 771 768 768 771 772 770 770 772 775 777 779 782 785 788 789 791 793 796 800 803 805 807 810 811 812 813 815 816 817 819 820 821 823 824 825 827 829 830 831 832 834 835 836 835 835 834 834 834 834 834 834 833 833 832 831 830 830 829 829 829 828 827 826 825 824 822
794 793 791 789 787 785 783 782 781 782 783 783 783 783 782 781 779 776 773 771 768 767 770 772 770 769 772 774 776 779 782 784 787 789 790 792 794 798 802 804 806 808 809 809 812 814 816 817 818 820 821 822 823 825 827 829 830 831 833 834 835 834 834 833 833 833 833 834 834 833 833 832 831 831 830 829 829 829 828 827 826 825 824 822 821
793 791 790 788 786 784 782 781 780 781 782 782 782 782 781 779 777 774 772 770 768 767 769 770 770 770 772 774 775 777 781 784 787 789 790 792 794 797 801 803 804 805 806 808 811 813 815 816 818 820 821 822 824 826 828 829 831 832 834 834 834 833 833 833 833 833 833 834 833 833 833 832 831 830 829 829 829 828 827 826 825 824 823 821 819
793 791 789 788 786 784 783 782 781 782 782 782 782 781 780 778 775 773 771 769 768 768 768 770 771 772 773 775 776 778 780 783 787 789 791 794 796 798 799 801 803 804 806 808 811 813 814 816 818 819 820 822 825 826 829 831 832 833 833 833 833 833 832 832 832 833 833 833 833 833 832 831 830 830 829 829 828 827 826 825 824 823 821 820 818
793 792 790 788 786 785 784 783 782 782 782 782 781 780 779 777 774 772 770 769 769 769 769 770 773 774 775 777 779 780 782 784 786 789 792 796 798 798 798 800 803 805 807 809 811 812 814 816 818 819 821 824 826 828 830 832 832 832 833 833 833 832 832 832 832 833 833 833 833 832 831 830 830 829 828 828 827 826 825 824 823 822 820 819 817
793 792 790 789 787 786 785 784 783 783 782 781 780 779 778 776 774 772 771 770 770 770 771 773 775 777 778 780 781 782 783 786 788 790 793 796 798 799 800 802 804 806 808 810 811 812 814 816 818 820 822 825 827 828 830 832 832 832 833 833 833 832 832 832 832 833 833 833 832 832 830 830 829 828 827 827 827 826 825 823 822 821 819 818 817
793 792 791 790 788 787 785 785 784 783 782 781 779 778 777 775 774 773 772 772 771 772 774 776 778 780 781 783 784 785 786 787 790 793 795 797 800 802 803 805 806 808 809 810 811 813 815 817 818 821 824 827 828 829 831 832 832 833 833 833 832 832 832 832 832 832 832 832 831 831 830 829 828 828 827 827 826 825 824 822 821 820 819 817 816
793 792 791 790 789 788 786 785 784 783 782 781 780 778 777 775 774 774 773 773 773 775 777 779 781 782 784 785 787 788 789 789 791 794 797 800 803 804 805 806 808 809 810 811 812 814 816 818 820 823 826 828 829 830 831 831 832 833 833 833 832 832 832 832 831 831 831 831 830 830 829 828 828 827 827 826 825 824 823 822 821 819 818 817 815
794 793 792 792 790 789 787 786 784 783 782 781 780 779 777 776 775 775 775 775 777 779 780 782 784 785 786 788 790 792 793 794 795 798 800 803 805 806 806 808 809 810 811 812 814 815 817 820 822 825 827 828 829 830 831 831 832 833 833 832 832 831 831 831 831 831 830 830 829 829 828 828 827 827 827 826 825 824 822 821 820 819 817 816 815
794 794 794 793 792 790 788 787 785 784 783 782 781 780 779 778 777 778 778 779 780 782 784 785 787 788 789 791 793 795 797 798 800 801 803 804 806 807 809 810 811 811 812 814 815 817 819 822 824 825 826 828 829 830 831 832 833 833 833 832 831 831 831 831 830 830 830 829 829 828 828 827 827 827 826 826 824 823 821 820 819 818 817 816 815
795 795 795 794 793 792 790 788 787 785 784 784 783 783 782 781 780 781 781 782 782 784 786 788 789 790 792 794 796 797 798 800 802 804 805 806 807 809 810 811 812 813 814 815 817 819 822 824 825 826 827 829 830 830 831 832 833 832 832 831 831 831 830 830 830 829 829 829 828 828 827 826 826 826 826 825 824 822 821 820 819 818 817 815 814
796 796 796 795 795 793 792 791 789 788 787 787 787 786 786 785 784 784 784 785 785 787 789 790 792 793 794 796 798 799 800 801 804 806 807 808 809 811 812 813 813 814 815 817 819 821 823 825 826 827 829 830 830 830 830 831 831 831 831 831 830 830 830 830 829 829 828 828 828 827 827 826 826 826 826 825 823 822 821 820 819 818 816 814 813
797 798 798 797 796 795 794 793 792 791 791 790 790 790 790 790 789 788 788 788 789 790 792 793 795 796 797 799 800 802 803 804 806 808 810 811 812 813 813 814 815 816 817 819 821 823 824 825 827 829 829 830 830 830 830 830 830 830 830 830 830 830 830 829 829 828 828 828 827 827 827 826 826 826 825 824 823 822 821 819 818 817 815 813 812
799 799 799 798 798 797 796 795 795 795 794 793 793 793 793 793 793 793 793 793 793 794 795 796 797 798 800 801 803 804 805 807 808 810 812 813 814 815 815 816 817 818 820 821 823 824 826 827 828 829 830 829 829 830 830 829 830 830 830 830 830 829 829 829 828 828 828 827 827 827 827 826 826 826 825 824 823 822 820 819 817 816 815 813 812